[Iaude] MPEC D49: 2024 DG [a=1.25,e=0.90,i=23.5,H=20.4]

mpec at cfa.harvard.edu mpec at cfa.harvard.edu
Sun Feb 18 09:19:46 EST 2024


M.P.E.C. 2024-D49                             Issued 2024 February 18, 14:18 UT

     The Minor Planet Electronic Circulars contain information on unusual
         minor planets, routine data on comets and natural satellites,
         and occasional editorial announcements.  They are published
    on behalf of Division F of the International Astronomical Union by the
          Minor Planet Center, Smithsonian Astrophysical Observatory,
                          Cambridge, MA 02138, U.S.A.
			  
             Prepared using the Tamkin Foundation Computer Network

                              MPC at CFA.HARVARD.EDU
            URL https://www.minorplanetcenter.net/    ISSN 1523-6714

                                    2024 DG                                     


Observations:
     K24D00G*1C2024 02 16.43633914 21 10.962+49 39 32.04         20.67GVED049G96
     K24D00G 1C2024 02 16.44156014 21 12.197+49 39 55.69         21.18GVED049G96
     K24D00G 1C2024 02 16.44679114 21 13.414+49 40 18.77         20.95GVED049G96
     K24D00G 1C2024 02 16.45202014 21 14.648+49 40 41.95         21.02GVED049G96
     K24D00G  C2024 02 16.48316514 21 21.858+49 43 01.19         20.7 GVED049H01
     K24D00G  C2024 02 16.48686314 21 22.730+49 43 17.68         20.6 GVED049H01
     K24D00G  C2024 02 16.49693814 21 25.101+49 44 02.64         20.7 GVED049H01
     K24D00G  C2024 02 16.50482714 21 26.959+49 44 37.82         20.9 GVED049H01
     K24D00G KC2024 02 16.52124114 21 30.931+49 45 51.37         21.07GVED049I52
     K24D00G KC2024 02 16.52394314 21 31.547+49 46 03.79         21.20GVED049I52
     K24D00G KC2024 02 16.52665514 21 32.159+49 46 15.53         21.05GVED049I52
     K24D00G KC2024 02 16.52936414 21 32.814+49 46 27.66         21.04GVED049I52
     K24D00G KC2024 02 17.02862214 23 39.06 +50 23 58.4          20.9 GVED049L01
     K24D00G KC2024 02 17.03198814 23 39.87 +50 24 14.6          21.1 GVED049L01
     K24D00G KC2024 02 17.03566514 23 40.82 +50 24 31.9          20.5 GVED049L01
     K24D00G KC2024 02 17.34026814 24 59.84 +50 47 59.0          21.2 GVED049H21
     K24D00G KC2024 02 17.34865514 25 01.97 +50 48 38.0          21.0 GVED049H21
     K24D00G KC2024 02 17.35154414 25 02.69 +50 48 51.5          21.1 GVED049H21
     K24D00G KC2024 02 18.05774 14 28 14.83 +51 44 25.9                VED049204
     K24D00G KC2024 02 18.07470 14 28 19.50 +51 45 48.0          20.9 GVED049204
     K24D00G KC2024 02 18.09169 14 28 24.11 +51 47 10.1                VED049204
     K24D00G KB2024 02 18.45198 14 30 06.87 +52 16 21.8          20.2 GVED049734
     K24D00G KB2024 02 18.45921 14 30 08.92 +52 16 56.7          20.2 GVED049734
     K24D00G KB2024 02 18.46644 14 30 11.01 +52 17 34.2          20.7 GVED049734
     K24D00G KB2024 02 18.47331 14 30 12.84 +52 18 06.8          20.3 GVED049734

Observer details:
204 Schiaparelli Observatory.  Observers L. Buzzi, G. Galli.  0.84-m f/3.5
    reflector + CMO.
734 Farpoint Observatory, Eskridge.  Observers D. Cromer, G. Hug, D. Goodin,
    R. Valentine.  Measurer D. Cromer.  0.69-m f/3.54 reflector + CMO.
G96 Mt. Lemmon Survey.  Observers V. F. Carvajal, J. K. Hogan.  Measurers T.
    Beuden, V. F. Carvajal, D. Fay, J. B. Fazekas, D. C. Fuls, A. R. Gibbs, A.
    D. Grauer, H. Groeller, J. K. Hogan, R. A. Kowalski, S. M. Larson, G. J.
    Leonard, D. Rankin, R. L. Seaman, F. C. Shelly, K. W. Wierzchos.  1.5-m
    reflector + 10K CCD.
H01 Magdalena Ridge Observatory, Socorro.  Observers W. H. Ryan, E. V. Ryan.
    Measurer W. H. Ryan.  2.4-m f/8.9 Ritchey-Chretien + CCD.
H21 Astronomical Research Observatory, Westfield.  Observer R. Holmes.
    Measurers T. Linder, R. Holmes, L. Horn.  0.76-m f/3.0 astrograph + CCD.
I52 Steward Observatory, Mt. Lemmon Station.  Observer J. B. Fazekas.
    Measurers E. C. Beshore, D. Fay, J. B. Fazekas, D. C. Fuls, A. R. Gibbs,
    A. D. Grauer, H. Groeller, J. K. Hogan, R. A. Kowalski, S. M. Larson, G.
    J. Leonard, D. Rankin, R. L. Seaman, F. C. Shelly, K. W. Wierzchos.  1.0-m
    prime focus + CCD.
L01 Visnjan Observatory, Tican.  Observer K. Korlevic.  1.0-m f/2.9 reflector
    + CCD.

Orbital elements:
2024 DG                                                  Earth MOID = 0.2928 AU
Epoch 2024 Mar. 31.0 TT = JDT 2460400.5                 Bell                    
M 350.31355              (2000.0)            P               Q                  
n   0.70154462     Peri.  277.30463     +0.56055574     +0.80438401             
a   1.2543898      Node    29.64260     -0.51088664     +0.52297668             
e   0.8976607      Incl.   23.45168     -0.65174543     +0.28188963             
P   1.40           H   20.40          G   0.15           U   9                  
Residuals in seconds of arc
240216 G96  0.0   0.0     240216 I52  0.0   0.3+    240218 204  0.1-  0.1-
240216 G96  0.1+  0.2+    240216 I52  0.3-  0.0     240218 204  0.1+  0.2-
240216 G96  0.0   0.1-    240216 I52  0.1-  0.0     240218 204  0.4-  0.3-
240216 G96  0.0   0.3-    240217 L01  0.1-  0.7-    240218 734  0.0   0.4-
240216 H01  0.0   0.1+    240217 L01  0.4-  0.1-    240218 734  0.1+  0.9-
240216 H01  0.0   0.1+    240217 L01  0.2-  0.2+    240218 734  0.5+  1.2+
240216 H01  0.0   0.1+    240217 H21  0.2+  0.2+    240218 734  0.5-  0.2+
240216 H01  0.1+  0.1+    240217 H21  0.0   0.0
240216 I52  0.2+  0.1-    240217 H21  0.1-  0.0

Ephemeris:
2024 DG                  a,e,i = 1.25, 0.90, 23                  q = 0.1284
Date    TT    R. A. (2000) Decl.     Delta      r    Elong.  Phase     V
2024 01 19    13 17 37.1 +30 16 35   1.0026  1.6186   109.1    35.1    22.9
...
2024 02 03    13 44 00.9 +37 24 54   0.7262  1.4554   115.7    37.6    22.0
...
2024 02 11    14 02 57.0 +43 44 46   0.5916  1.3580   116.5    40.6    21.5
...
2024 02 17    14 23 30.6 +50 21 46   0.4999  1.2794   114.6    44.6    21.1
2024 02 18    14 27 57.6 +51 39 46   0.4856  1.2658   114.0    45.5    21.1
2024 02 19    14 32 50.8 +53 01 30   0.4717  1.2521   113.3    46.5    21.0
...
2024 02 25    15 18 01.8 +62 31 13   0.3963  1.1664   106.6    54.4    20.7
...
2024 03 04    18 40 56.2 +74 22 31   0.3273  1.0423    89.6    72.1    20.6
...
2024 03 19    00 13 30.2 +41 08 56   0.3522  0.7704    41.9   120.3    22.4

M. P. C. Staff               (C) Copyright 2024 MPC           M.P.E.C. 2024-D49





More information about the Iaude mailing list